Weather History for Maxwell AFB, AL

Change the Weather History Date:

Monday, January 6, 2014

  Actual Average Record
Temperature  
Mean Temperature 27 °F -  
Max Temperature 37 °F 57 °F 77 °F (2009)
Min Temperature 16 °F 37 °F 16 °F (2014)
Degree Days  
Heating Degree Days 38    
Moisture  
Dew Point 13 °F    
Average Humidity 58    
Maximum Humidity 93    
Minimum Humidity 30    
Precipitation  
Precipitation 0.00 in - - ()
Sea Level Pressure  
Sea Level Pressure 30.33 in    
Wind  
Wind Speed 15 mph (NW)    
Max Wind Speed 21 mph    
Max Gust Speed 33 mph    
Visibility 10 miles    
Events      
Averages and records for this station are not official NWS values.
T = Trace of Precipitation, MM = Missing Value Source: NWS Daily Summary

Daily Weather History Graph

Daily Weather History Graph

Search for Another Location

Airport:

Trip Planner

Search our weather history database for the weather conditions in past years. The results will help you decide how hot, cold, wet, or windy it might be!

Date:

Astronomy

Jan. 06, 2014 Rise Set
Actual Time 6:47 AM CST 4:55 PM CST
Civil Twilight 6:20 AM CST 5:22 PM CST
Nautical Twilight 5:50 AM CST 5:52 PM CST
Astronomical Twilight 5:20 AM CST 6:22 PM CST
Moon 10:24 AM CST (1/6) 11:04 PM CST (1/6)
Length of Visible Light 11h 01m
Length of Day
10h 07m
Waxing Crescent, 35% of the Moon is Illuminated
Jan 6
Waxing Crescent
Jan 7
First Quarter
Jan 15
Full
Jan 23
Last Quarter
Jan 30
New

Hourly Weather History & Observations

Time (CST) Temp. Windchill Dew Point Humidity Pressure Visibility Wind Dir Wind Speed Gust Speed Precip Events Conditions
12:11 AM 37.4 °F 28.2 °F 35.6 °F 93% 30.01 in 10.0 mi WNW 16.1 mph 25.3 mph N/A   Overcast
12:58 AM 35.1 °F 26.4 °F 31.3 °F 86% 30.06 in 10.0 mi NW 12.7 mph 25.3 mph 0.00 in   Overcast
1:58 AM 33.4 °F 24.3 °F 29.3 °F 85% 30.09 in 10.0 mi WNW 12.7 mph 23.0 mph N/A   Overcast
2:53 AM 32.0 °F 21.2 °F 26.6 °F 80% 30.11 in 10.0 mi NW 16.1 mph 26.5 mph N/A   Overcast
2:58 AM 32.4 °F 22.5 °F 27.1 °F 81% 30.12 in 10.0 mi NW 13.8 mph 26.5 mph N/A   Overcast
3:58 AM 30.6 °F 18.6 °F 24.8 °F 79% 30.16 in 10.0 mi NW 18.4 mph 24.2 mph N/A   Overcast
4:53 AM 28.4 °F 15.1 °F 21.2 °F 74% 30.19 in 10.0 mi NNW 20.7 mph 33.4 mph N/A   Overcast
4:58 AM 29.1 °F 16.7 °F 21.0 °F 72% 30.20 in 10.0 mi NW 18.4 mph 33.4 mph N/A   Overcast
5:58 AM 28.2 °F 15.5 °F 20.3 °F 72% 30.24 in 10.0 mi NW 18.4 mph 24.2 mph N/A   Overcast
6:58 AM 27.5 °F 17.4 °F 19.2 °F 71% 30.28 in 10.0 mi NW 11.5 mph - N/A   Overcast
7:16 AM 26.6 °F 15.2 °F 19.4 °F 74% 30.28 in 10.0 mi NW 13.8 mph 26.5 mph N/A   Mostly Cloudy
7:58 AM 27.0 °F 17.3 °F 18.0 °F 69% 30.31 in 10.0 mi NW 10.4 mph 23.0 mph N/A   Mostly Cloudy
8:43 AM 28.4 °F 15.4 °F 17.6 °F 64% 30.33 in 10.0 mi NW 19.6 mph 26.5 mph N/A   Scattered Clouds
8:53 AM 28.4 °F 15.8 °F 17.6 °F 64% 30.34 in 10.0 mi NW 18.4 mph 26.5 mph N/A   Mostly Cloudy
8:58 AM 28.6 °F 16.8 °F 16.7 °F 61% 30.35 in 10.0 mi NW 16.1 mph 26.5 mph N/A   Scattered Clouds
9:48 AM 30.2 °F 18.9 °F 17.6 °F 60% 30.36 in 10.0 mi WNW 16.1 mph 25.3 mph N/A   Mostly Cloudy
9:58 AM 28.8 °F 17.5 °F 16.9 °F 61% 30.38 in 10.0 mi WNW 15.0 mph 25.3 mph N/A   Mostly Cloudy
10:18 AM 28.4 °F 19.7 °F 15.8 °F 59% 30.36 in 10.0 mi NW 9.2 mph 19.6 mph N/A   Scattered Clouds
10:58 AM 30.6 °F 20.2 °F 14.2 °F 51% 30.36 in 10.0 mi WNW 13.8 mph 20.7 mph N/A   Clear
11:58 AM 30.7 °F 19.6 °F 8.4 °F 39% 30.37 in 10.0 mi WNW 16.1 mph 20.7 mph N/A   Clear
12:58 PM 30.4 °F 20.0 °F 7.2 °F 38% 30.35 in 10.0 mi West 13.8 mph 27.6 mph N/A   Clear
1:58 PM 31.3 °F 19.5 °F 3.4 °F 31% 30.37 in 10.0 mi NW 18.4 mph 25.3 mph N/A   Clear
2:58 PM 30.2 °F 18.9 °F 3.4 °F 32% 30.39 in 10.0 mi NW 16.1 mph 23.0 mph N/A   Clear
3:58 PM 27.9 °F 15.9 °F -0.4 °F 30% 30.41 in 10.0 mi NW 16.1 mph 23.0 mph N/A   Clear
4:58 PM 25.3 °F 14.1 °F 0.3 °F 34% 30.44 in 10.0 mi NW 12.7 mph 19.6 mph N/A   Clear
5:58 PM 23.9 °F 13.5 °F 1.0 °F 37% 30.47 in 10.0 mi NW 10.4 mph - N/A   Clear
6:58 PM 22.6 °F 10.1 °F -0.4 °F 37% 30.50 in 10.0 mi NW 13.8 mph 23.0 mph N/A   Clear
7:58 PM 21.0 °F 11.4 °F -1.3 °F 38% 30.52 in 10.0 mi WNW 8.1 mph - N/A   Clear
8:58 PM 19.8 °F 9.1 °F -0.0 °F 42% 30.55 in 10.0 mi NW 9.2 mph - N/A   Clear
9:58 PM 18.7 °F 7.0 °F -0.4 °F 43% 30.56 in 10.0 mi NW 10.4 mph - N/A   Clear
10:58 PM 17.8 °F 5.9 °F -0.0 °F 46% 30.57 in 10.0 mi NW 10.4 mph - N/A   Clear
11:58 PM 16.9 °F 5.5 °F 0.1 °F 48% 30.58 in 10.0 mi WNW 9.2 mph - N/A   Clear